Regional Weather Roundup
Issued by NWS

Home | Current Version | Previous Version | Graphics & Text | Print | Product List | Glossary On
Versions: 1 2 3 4 5 6 7 8 9 10 11 12 13 14 15 16 17 18 19 20 21 22 23 24 25 26 27 28 29 30 31 32 33 34 35 36 37 38 39 40 41 42 43 44 45 46 47 48 49 50
000
ASUS43 KMKX 231600
RWRWI

WISCONSIN REGIONAL WEATHER ROUNDUP
NATIONAL WEATHER SERVICE MILWAUKEE/SULLIVAN WI
1100 AM CDT SAT AUG 23 2014

NOTE: "FAIR" INDICATES FEW OR NO CLOUDS BELOW 12,000 FEET WITH NO
SIGNIFICANT WEATHER AND/OR OBSTRUCTIONS TO VISIBILITY.

WIZ001-002-006>008-014>016-023>028-231700-
NORTHWEST WISCONSIN

CITY           SKY/WX    TMP DP  RH WIND       PRES   REMARKS
SUPERIOR ARPT  CLOUDY    62  61  96 NE10G16   30.07S FOG
ASHLAND        CLOUDY    65  62  90 NE5       30.07F
HAYWARD        CLOUDY    73  67  81 E6        30.04F
SIREN          CLOUDY    68  65  89 E3        30.03F
RICE LAKE      CLOUDY    72  67  84 E6        30.03F
LADYSMITH      CLOUDY    73  68  86 NE7       30.05F
EAU CLAIRE     NOT AVBL
MENOMONIE      CLOUDY    71  67  89 CALM      30.00F
NEW RICHMOND   CLOUDY    69  67  93 E6        30.01F
OSCEOLA        CLOUDY    70  69  95 E7        30.04S
$$

WIZ003>005-009-010-017-018-231700-
NORTH CENTRAL WISCONSIN

CITY           SKY/WX    TMP DP  RH WIND       PRES   REMARKS
WOODRUFF       CLOUDY    77  74  91 E5        30.06S
RHINELANDER    CLOUDY    70  68  93 SE6       30.07F FOG
EAGLE RIVER    CLOUDY    72  68  89 CALM      30.06F
LAND O LAKES   CLOUDY    69  68  98 E5        30.09S
PHILLIPS       CLOUDY    71  68  90 E3        30.05S
TOMAHAWK       CLOUDY    69  68  96 CALM      30.06S FOG
MEDFORD        CLOUDY    70  70  99 E3        30.04F FOG
MERRILL        CLOUDY    70  70 100 CALM      30.05S FOG
$$

WIZ029-030-035-036-043>047-231700-
CENTRAL WISCONSIN

CITY           SKY/WX    TMP DP  RH WIND       PRES   REMARKS
WAUSAU         CLOUDY    72  70  93 E7        30.02F FOG
MOSINEE        CLOUDY    72  72 100 E6        30.04F FOG
MARSHFIELD     CLOUDY    72  71  97 E9        30.02F FOG
STEVENS POINT  CLOUDY    69  68  99 NE7       30.03F FOG
WAUPACA        FOG       72  70  95 NE3       30.02F VSB 1/2
WAUTOMA        CLOUDY    73  73 100 NE7       30.01F FOG
WISC RAPIDS    CLOUDY    72  70  93 E7        30.03S FOG
CAMP DOUGLAS   FOG       75  75 100 E6        30.01R VSB 1
$$

WIZ011>013-019>022-031-037>040-048>050-231700-
NORTHEAST WISCONSIN

CITY           SKY/WX    TMP DP  RH WIND       PRES   REMARKS
ANTIGO         CLOUDY    68  68  99 SE5       30.07S FOG
STURGEON BAY   CLOUDY    72  64  78 SE6       30.06F
GREEN BAY      CLOUDY    77  71  82 E7        30.03F
MANITOWOC      NOT AVBL
APPLETON       CLOUDY    72  70  94 VRB6      30.04S FOG
CLINTONVILLE   FOG       70  70 100 E5        30.03F VSB 1
OSHKOSH        CLOUDY    75  72  90 SE5       30.02R
$$

WIZ032>034-041-042-053>061-231700-
SOUTHWEST WISCONSIN

CITY           SKY/WX    TMP DP  RH WIND       PRES   REMARKS
LA CROSSE      CLOUDY    75  71  87 SE5       29.98R
SPARTA         CLOUDY    73  72  98 E3        30.00R FOG
VIROQUA        CLOUDY    73  73 100 CALM      30.02R VSB 1/4
BOSCOBEL       LGT RAIN  77  75  93 CALM      29.98S FOG
PRAIRIE DU CHI HVY RAIN  74  70  89 SW8       29.99R
PLATTEVILLE    PTSUNNY   75  74  96 CALM      30.01R
$$

WIZ056-057-062-063-064-067-068-231700-
SOUTH CENTRAL WISCONSIN

CITY           SKY/WX    TMP DP  RH WIND       PRES   REMARKS
BARABOO/DELLS  CLOUDY    76  74  94 SE5       30.00S FOG
LONE ROCK      CLOUDY    82  75  79 SE5       29.99R HX  89
WATERTOWN      CLOUDY    75  73  96 SE7       30.02R
MADISON        CLOUDY    78  74  87 SE7       30.02R HX  81
MIDDLETON      CLOUDY    78  77  98 E5        30.02R HX  80
MONROE         CLOUDY    75  73  94 E3        30.02R FOG
JANESVILLE     CLOUDY    79  75  89 E5        30.01R FOG     HX  82
$$

WIZ051-052-058>065-066-070>072-231700-
SOUTHEAST WISCONSIN

CITY           SKY/WX    TMP DP  RH WIND       PRES   REMARKS
MILWAUKEE      FOG       72  70  93 E3        30.03R VSB 3/4
WAUKESHA       FOG       72  72 100 E3        30.04R VSB 1
MILWAUKEE/TIMM CLOUDY    73  70  88 E3        30.04  FOG
RACINE         CLOUDY    73  71  93 E6        30.05R FOG
BURLINGTON     CLOUDY    73  70  90 CALM      30.02R
KENOSHA        CLOUDY    74  73  97 E5        30.03R FOG
FOND DU LAC    CLOUDY    76  72  87 S6        30.03R
SHEBOYGAN      CLOUDY    74  69  85 E7        30.04R
WEST BEND      CLOUDY    72  70  94 E6        30.03R FOG
JUNEAU         CLOUDY    73  47  39 SE6       30.04S HAZE
$$

LSZ147-162-231700-
LAKE SUPERIOR

STATION/POSITION TIME  TEMP    WIND        PRES    WAVE
                       AIR SEA DIR/SP/G            HT/PER
                 (UTC) (F)     (DEG/KT/KT) (MB)    (FT/S)
W MID LAKE BUOY  1450   59 59   40/ 12/ 14 1018.3R   1/ 4
DEVILS ISLAND    1500   60      70/ 12/ 14 1018.4R
PORT WING        1540   62      40/ 11/ 13 1017.9S
SAXON HARBOR     1500   64        CALM     1017.9S
$$

LMZ867-665-643>646-231700-
LAKE MICHIGAN

STATION/POSITION TIME  TEMP    WIND        PRES    WAVE
                       AIR SEA DIR/SP/G            HT/PER
                 (UTC) (F)     (DEG/KT/KT) (MB)    (FT/S)
N MID LAKE BUOY  1450   67 65  100/  6/  8 1017.5R   1
NORTHPORT PIER   1500   68     140/  8/  9 1017.6F
SISTER BAY       1511   75     130/ 10/ 13   N/A
KEWAUNEE LAKESHO 1500   68     150/  2/  4 1016.7R
SHEBOYGAN LAKESH 1500   68 65  140/  3/  3 1017.0R
ATWATER BUOY     1500   71      90/  6/  8 1017.2F
MILWAUKEE LAKESH 1500   70      80/  4/  6   N/A
S MID LAKE BUOY  1450   69 69   90/ 10/ 12 1016.2R   1
KENOSHA   LAKESH 1500   72      50/  1/  2 1015.9R
$$

TC  - TEMPERATURE IN CELSIUS
VSB - VISIBILITY IN STATUTE MILES
WCI - WIND CHILL INDEX
HX  - HEAT INDEX




USA.gov is the U.S. government's official web portal to all federal, state and local government web resources and services.